EW5612 Weather Reports


time (UTC)temp
C
wind
direction
speed
KPH
gust
KPH
rain 1hr
cm
rain 24hr
cm
rain mn
cm
humidity
%
barometer
mb
20260504150703 22 193 0.0 9.7 0.00 0.00 0.00 74 1014.4
20260504141204 19 195 0.0 4.8 0.00 0.00 0.00 78 1014.6
20260504140704 18 187 0.0 3.2 0.00 0.00 0.00 80 1014.6
20260504140204 18 173 0.0 0.0 0.00 0.00 0.00 80 1014.6
20260504130704 16 184 0.0 0.0 0.00 0.00 0.00 89 1014.7
20260504130203 15 184 0.0 0.0 0.00 0.00 0.00 90 1014.8
20260504120204 14 184 0.0 0.0 0.00 0.00 0.00 91 1014.1
20260504110704 14 184 0.0 0.0 0.00 0.00 0.00 89 1014.3
20260504100203 15 184 0.0 0.0 0.00 0.00 0.00 85 1014.6
20260504081703 16 184 0.0 0.0 0.00 0.00 0.00 81 1015.0
20260504081204 16 184 0.0 0.0 0.00 0.00 0.00 80 1014.9
20260504080703 16 184 0.0 0.0 0.00 0.00 0.00 80 1015.0
20260504080204 17 184 0.0 0.0 0.00 0.00 0.00 79 1015.2
20260504070203 17 184 0.0 0.0 0.00 0.00 0.00 76 1016.1
20260504060204 18 188 0.0 0.0 0.00 0.00 0.00 74 1016.9
20260504050703 18 177 0.0 0.0 0.00 0.00 0.00 73 1017.0
20260504050203 18 183 0.0 3.2 0.00 0.00 0.00 73 1017.0
20260504045703 18 187 0.0 0.0 0.00 0.00 0.00 73 1017.1
20260504044203 18 187 0.0 4.8 0.00 0.00 0.00 72 1017.1
20260504043703 18 185 0.0 4.8 0.00 0.00 0.00 72 1017.2
20260504043203 18 173 0.0 3.2 0.00 0.00 0.00 72 1017.3
20260504042703 18 165 0.0 0.0 0.00 0.00 0.00 72 1017.3
20260504042204 18 165 0.0 0.0 0.00 0.00 0.00 73 1017.2
20260504041703 18 165 0.0 0.0 0.00 0.00 0.00 72 1017.2
20260504041203 18 165 0.0 0.0 0.00 0.00 0.00 72 1017.2
20260504040704 18 167 0.0 0.0 0.00 0.00 0.00 72 1017.3
20260504040204 18 167 0.0 0.0 0.00 0.00 0.00 72 1017.3
20260504035703 18 167 0.0 0.0 0.00 0.00 0.00 71 1017.4
20260504034204 18 167 0.0 0.0 0.00 0.00 0.00 70 1017.3
20260504033703 19 167 0.0 4.8 0.00 0.00 0.00 69 1017.3
20260504033204 19 191 0.0 1.6 0.00 0.00 0.00 69 1017.3
20260504032703 19 191 0.0 1.6 0.00 0.00 0.00 68 1017.3
20260504032203 19 191 0.0 4.8 0.00 0.00 0.00 68 1017.3
20260504031704 19 164 0.0 0.0 0.00 0.00 0.00 67 1017.2
20260504030203 19 164 0.0 0.0 0.00 0.00 0.00 66 1017.1
20260504025703 19 164 0.0 0.0 0.00 0.00 0.00 66 1017.0
20260504025203 19 164 0.0 0.0 0.00 0.00 0.00 66 1017.0
20260504024707 18 139 0.0 0.0 0.00 0.00 0.00 66 1017.0
20260504024203 18 139 0.0 0.0 0.00 0.00 0.00 65 1017.0
20260504023703 18 139 0.0 0.0 0.00 0.00 0.00 65 1017.0
20260504023203 19 139 0.0 0.0 0.00 0.00 0.00 67 1017.1
20260504022203 19 139 0.0 0.0 0.00 0.00 0.00 66 1017.0
20260504021703 20 139 0.0 0.0 0.00 0.00 0.00 65 1016.8
20260504021206 20 139 0.0 0.0 0.00 0.00 0.00 64 1016.7
20260504015704 20 139 0.0 0.0 0.00 0.00 0.00 61 1016.3
20260504015204 20 139 0.0 0.0 0.00 0.00 0.00 61 1016.2
20260504014704 20 139 0.0 0.0 0.00 0.00 0.00 60 1016.2
20260504014204 21 139 0.0 0.0 0.00 0.00 0.00 59 1016.2
20260504013703 21 139 0.0 0.0 0.00 0.00 0.00 59 1016.2
20260504013203 21 139 0.0 0.0 0.00 0.00 0.00 57 1016.2
20260504012703 21 139 0.0 0.0 0.00 0.00 0.00 58 1016.1
20260504011703 22 139 0.0 0.0 0.00 0.00 0.00 54 1016.2
20260504010703 22 139 0.0 0.0 0.00 0.00 0.00 55 1016.1
20260504010203 22 139 0.0 0.0 0.00 0.00 0.00 54 1016.1
20260504005704 22 139 0.0 0.0 0.00 0.00 0.00 52 1016.1
20260504005204 23 139 0.0 0.0 0.00 0.00 0.00 52 1016.1
20260504004704 23 139 0.0 0.0 0.00 0.00 0.00 51 1016.1
20260504004203 23 139 0.0 0.0 0.00 0.00 0.00 50 1016.1
20260504003703 23 139 0.0 0.0 0.00 0.00 0.00 47 1016.1
20260504002704 24 139 0.0 0.0 0.00 0.00 0.00 45 1016.4
20260504002204 24 139 0.0 0.0 0.00 0.00 0.00 45 1016.5
20260504001704 24 139 0.0 0.0 0.00 0.00 0.00 43 1016.4
20260504001204 24 139 0.0 0.0 0.00 0.00 0.00 44 1016.5
20260504000703 25 139 0.0 0.0 0.00 0.00 0.00 44 1016.6
20260504000204 25 139 0.0 0.0 0.00 0.00 0.00 44 1016.7
20260503235703 25 139 0.0 0.0 0.00 0.00 0.00 43 1016.7
20260503235203 25 139 0.0 0.0 0.00 0.00 0.00 43 1016.6
20260503234704 25 139 0.0 0.0 0.00 0.00 0.00 44 1016.6
20260503233703 25 139 0.0 0.0 0.00 0.00 0.00 42 1016.7
20260503233204 25 130 0.0 0.0 0.00 0.00 0.00 41 1016.7
20260503232704 25 130 0.0 0.0 0.00 0.00 0.00 40 1016.8
20260503231704 25 130 0.0 4.8 0.00 0.00 0.00 42 1016.5
20260503231203 25 133 1.6 4.8 0.00 0.00 0.00 39 1016.6
20260503230204 25 112 0.0 3.2 0.00 0.00 0.00 39 1016.6
20260503224203 26 163 3.2 4.8 0.00 0.00 0.00 38 1017.1
20260503223704 26 159 1.6 8.0 0.00 0.00 0.00 40 1017.2
20260503223204 26 193 1.6 4.8 0.00 0.00 0.00 39 1017.1
20260503222704 26 114 3.2 8.0 0.00 0.00 0.00 38 1017.2
20260503222204 26 129 4.8 9.7 0.00 0.00 0.00 39 1017.2
20260503221704 26 112 0.0 0.0 0.00 0.00 0.00 38 1017.3
20260503221203 26 171 3.2 8.0 0.00 0.00 0.00 38 1017.4
20260503220703 26 123 0.0 3.2 0.00 0.00 0.00 39 1017.6
20260503215703 26 141 1.6 4.8 0.00 0.00 0.00 42 1017.5
20260503215203 26 126 0.0 3.2 0.00 0.00 0.00 36 1017.6
20260503214703 26 113 3.2 4.8 0.00 0.00 0.00 38 1017.7
20260503214203 26 116 1.6 9.7 0.00 0.00 0.00 37 1017.7
20260503213704 26 189 1.6 8.0 0.00 0.00 0.00 38 1017.9
20260503213204 26 109 1.6 4.8 0.00 0.00 0.00 38 1018.0
20260503212704 26 130 3.2 8.0 0.00 0.00 0.00 39 1018.1
20260503212204 26 124 1.6 9.7 0.00 0.00 0.00 38 1018.2
20260503211704 26 83 3.2 9.7 0.00 0.00 0.00 37 1018.3
20260503211204 26 110 4.8 11.3 0.00 0.00 0.00 38 1018.4
20260503210703 26 122 1.6 4.8 0.00 0.00 0.00 39 1018.6
20260503210204 26 161 3.2 9.7 0.00 0.00 0.00 40 1018.5
20260503205704 26 116 1.6 4.8 0.00 0.00 0.00 40 1018.5
20260503205204 26 144 3.2 4.8 0.00 0.00 0.00 38 1018.7
20260503204704 26 150 0.0 0.0 0.00 0.00 0.00 40 1018.8
20260503203703 26 122 3.2 4.8 0.00 0.00 0.00 39 1019.1
20260503203204 27 172 3.2 9.7 0.00 0.00 0.00 38 1019.1
20260503202203 26 187 1.6 4.8 0.00 0.00 0.00 37 1019.2
20260503201704 26 195 3.2 8.0 0.00 0.00 0.00 37 1019.2
20260503201204 26 183 4.8 9.7 0.00 0.00 0.00 37 1019.4
20260503200703 26 182 3.2 11.3 0.00 0.00 0.00 39 1019.5
20260503200203 26 192 1.6 4.8 0.00 0.00 0.00 39 1019.6
20260503195703 26 113 3.2 9.7 0.00 0.00 0.00 39 1019.6
20260503195203 26 117 1.6 4.8 0.00 0.00 0.00 39 1019.6
20260503194703 26 178 1.6 8.0 0.00 0.00 0.00 39 1019.7
20260503193703 26 186 0.0 9.7 0.00 0.00 0.00 40 1019.9
20260503193203 26 163 3.2 8.0 0.00 0.00 0.00 39 1019.9
20260503192704 26 191 3.2 11.3 0.00 0.00 0.00 39 1019.9
20260503191704 26 127 1.6 4.8 0.00 0.00 0.00 40 1020.2
20260503191203 26 193 1.6 11.3 0.00 0.00 0.00 41 1020.3
20260503190704 26 180 3.2 4.8 0.00 0.00 0.00 38 1020.4
20260503190203 26 161 1.6 8.0 0.00 0.00 0.00 39 1020.5
20260503185703 26 139 3.2 11.3 0.00 0.00 0.00 40 1020.5
20260503185203 26 159 1.6 4.8 0.00 0.00 0.00 39 1020.5
20260503184203 26 192 4.8 9.7 0.00 0.00 0.00 38 1020.7
20260503183705 26 150 1.6 3.2 0.00 0.00 0.00 37 1020.7
20260503172703 24 158 1.6 11.3 0.00 0.00 0.00 48 1021.9
20260503172203 24 180 4.8 11.3 0.00 0.00 0.00 48 1022.0
20260503171704 24 189 1.6 9.7 0.00 0.00 0.00 49 1022.1
20260503171203 24 79 3.2 8.0 0.00 0.00 0.00 51 1022.2
20260503170204 24 185 3.2 8.0 0.00 0.00 0.00 48 1022.3
20260503160203 22 177 0.0 3.2 0.00 0.00 0.00 53 1022.8